Flag for U.S.A. Weather past 2 weeks in Idaho Falls, Idaho, U.S.A.

Now
56 °F

Rain. Mostly cloudy.


Feels Like: 52 °F
Forecast: 49 / 71 °F
Wind: 18 mph from South

Location: Fanning Field

Current Time: Jun 1, 2015 at 7:42:38 PM

Latest Report: Jun 1, 2015 at 6:53 PM


Visibility: 4 mi

Pressure: 29.96 "Hg

Humidity: 77%

Dew point: 49 °F

Location of Idaho FallsLocation

Historic Weather in Idaho Falls — Graph

°F

Idaho Falls temperature yesterday

Maximum temperature yesterday: 83 °F (at 5:53 PM)
Minimum temperature yesterday: 48 °F (at 4:53 AM)
Average temperature yesterday: 66 °F

Past Weeks' High & Low Weather Summary

 TemperatureHumidityPressure
High83 °F (May 31, 5:53 PM)100% (May 24, 2:58 AM)30.19 "Hg (May 24, 2:58 AM)
Low41 °F (May 29, 4:53 AM)22% (May 31, 4:53 PM)29.72 "Hg (Jun 1, 3:53 PM)
Average56 °F72%29.96 "Hg
* Reported May 17 5:53 PM — Jun 1 5:53 PM, Idaho Falls, Weather by CustomWeather, © 2015

Note: Actual official high and low records may vary slightly from our data, if they occured in-between our weather recording intervals... More about our weather records

Advertising

Idaho Falls weather history for previous 24 hours

 ConditionsComfort  
Time TempWeatherWind HumidityBarometerVisibility
5:53 PM
Mon, Jun 1
60 °FLight rain. Overcast.14 mph60%29.97 "Hg10 mi
4:53 PM62 °FThunderstorms. Mostly cloudy.21 mph60%29.86 "Hg7 mi
3:53 PM77 °FPartly sunny.16 mph44%29.72 "Hg10 mi
2:53 PM79 °FPartly sunny.15 mph39%29.73 "Hg10 mi
1:53 PM78 °FPartly sunny.13 mph40%29.74 "Hg10 mi
12:53 PM77 °FScattered clouds.7 mph40%29.76 "Hg10 mi
11:53 AM73 °FScattered clouds.5 mph55%29.78 "Hg10 mi
10:53 AM69 °FScattered clouds.5 mph55%29.79 "Hg10 mi
9:53 AM66 °FBroken clouds.6 mph56%29.82 "Hg10 mi
8:53 AM61 °FPartly sunny.12 mph75%29.83 "Hg10 mi
7:53 AM61 °FPartly sunny.9 mph67%29.79 "Hg10 mi
6:53 AM55 °FClear.7 mph77%29.80 "Hg10 mi
5:53 AM54 °FClear.9 mph83%29.79 "Hg10 mi
4:53 AM54 °FClear.7 mph86%29.82 "Hg10 mi
3:53 AM56 °FClear.5 mph84%29.84 "Hg10 mi
2:53 AM58 °FClear.No wind78%29.85 "Hg10 mi
1:53 AM66 °FPassing clouds.6 mph49%29.84 "Hg10 mi
12:53 AM65 °FPassing clouds.No wind54%29.88 "Hg10 mi
11:53 PM
Sun, May 31
64 °FPassing clouds.8 mph58%29.86 "Hg10 mi
11:01 PM66 °FClear.8 mph54%29.99 "Hg10 mi
9:53 PM64 °FRain. More clouds than sun.13 mph61%29.94 "Hg5 mi
8:55 PM73 °FThunderstorms. Passing clouds.9 mph50%29.97 "Hg10 mi
7:53 PM78 °FPartly sunny.7 mph35%29.83 "Hg10 mi
Weather by CustomWeather, © 2015

See weather overviewHow to use our weather pages